User: anonymous   Login
Location: Caltech
(34.1382°N, 118.1253°W)
Time: 09:30:07
(UTC-07:00)
Language:

ALOS - Orbit

View from above orbital plane
View from above orbital plane
View from above satellite
View from above satellite

Ground track
Ground track

The orbit data is extracted from the following two-line orbital elements,

1 28931U 06002A   17263.17764708  .00000319  00000-0  71691-4 0  9991
2 28931  97.8386 285.7581 0002263  64.4068 295.7368 14.62394043621345
Epoch (UTC): 20 September 2017 04:15:48
Eccentricity: 0.0002263
inclination: 97.8386°
perigee height: 684 km
apogee height: 687 km
right ascension of ascending node: 285.7581°
argument of perigee: 64.4068°
revolutions per day: 14.62394043
mean anomaly at epoch: 295.7368°
orbit number at epoch: 62134

The dashed part of the orbit path shows where the satellite is in the earth's shadow,  

DLR